timestamp,wind_dir_avg,wind_spd_avg,wind_spd_max_dir,wind_spd_gust,battery_voltage,lat,long
2023-04-07 00:04:00+00:00,231.0,5.09,231.0,5.51,12.41,47.59359,-54.27349
2023-04-07 00:14:00+00:00,230.0,5.62,238.0,6.38,12.33,47.59359,-54.27349
2023-04-07 00:24:00+00:00,222.0,5.05,223.0,6.36,12.33,47.59359,-54.27349
2023-04-07 00:34:00+00:00,238.0,6.41,239.0,7.09,12.33,47.59359,-54.27349
2023-04-07 00:44:00+00:00,233.0,6.17,232.0,6.75,12.33,47.59359,-54.27349
2023-04-07 00:54:00+00:00,246.0,6.49,258.0,7.44,12.33,47.59359,-54.27349
2023-04-07 01:04:00+00:00,243.0,5.8,248.0,6.36,12.33,47.59359,-54.27349
2023-04-07 01:14:00+00:00,234.0,5.24,231.0,5.97,12.25,47.59359,-54.27349
2023-04-07 01:24:00+00:00,233.0,6.46,232.0,7.78,12.25,47.59359,-54.27349
2023-04-07 01:34:00+00:00,235.0,7.77,236.0,8.7,12.25,47.59359,-54.27349
2023-04-07 01:44:00+00:00,242.0,8.0,245.0,9.45,12.25,47.59359,-54.27349
2023-04-07 01:54:00+00:00,233.0,7.24,230.0,8.25,12.25,47.59359,-54.27349
2023-04-07 02:04:00+00:00,228.0,6.07,218.0,7.22,12.25,47.59359,-54.27349
2023-04-07 02:14:00+00:00,230.0,6.31,234.0,8.03,12.25,47.59359,-54.27349
2023-04-07 02:24:00+00:00,235.0,7.27,225.0,7.97,12.25,47.59359,-54.27349
2023-04-07 02:34:00+00:00,229.0,7.37,232.0,8.67,12.25,47.59359,-54.27349
2023-04-07 02:44:00+00:00,231.0,7.32,232.0,8.54,12.25,47.59359,-54.27349
2023-04-07 02:54:00+00:00,240.0,8.16,241.0,9.6,12.25,47.59359,-54.27349
2023-04-07 03:04:00+00:00,236.0,8.25,239.0,9.63,12.25,47.59359,-54.27349
2023-04-07 03:14:01+00:00,239.0,9.34,239.0,9.92,12.25,47.59359,-54.27349
2023-04-07 03:24:01+00:00,237.0,7.76,238.0,8.62,12.25,47.59359,-54.27349
2023-04-07 03:34:01+00:00,234.0,7.81,237.0,8.76,12.25,47.59359,-54.27349
2023-04-07 03:44:01+00:00,226.0,5.57,225.0,7.17,12.25,47.59359,-54.27349
2023-04-07 03:54:01+00:00,227.0,6.5,232.0,8.35,12.25,47.59359,-54.27349
2023-04-07 04:04:01+00:00,232.0,7.4,234.0,8.64,12.25,47.59359,-54.27349
2023-04-07 04:14:00+00:00,234.0,6.49,242.0,7.48,12.17,47.59359,-54.27349
2023-04-07 04:24:00+00:00,232.0,5.97,234.0,6.83,12.17,47.59359,-54.27349
2023-04-07 04:34:00+00:00,231.0,7.52,232.0,8.29,12.17,47.59359,-54.27349
2023-04-07 04:44:00+00:00,223.0,6.84,224.0,8.53,12.17,47.59359,-54.27349
2023-04-07 04:54:00+00:00,226.0,6.97,232.0,8.66,12.17,47.59359,-54.27349
2023-04-07 05:04:00+00:00,227.0,6.29,228.0,6.92,12.17,47.59359,-54.27349
2023-04-07 05:14:00+00:00,226.0,6.96,229.0,7.92,12.17,47.59359,-54.27349
2023-04-07 05:24:00+00:00,220.0,8.25,214.0,9.55,12.17,47.59359,-54.27349
2023-04-07 05:34:00+00:00,228.0,7.29,214.0,10.78,12.17,47.59359,-54.27349
2023-04-07 05:44:00+00:00,232.0,7.65,232.0,8.57,12.17,47.59359,-54.27349
2023-04-07 05:54:00+00:00,226.0,7.17,226.0,8.38,12.17,47.59359,-54.27349
2023-04-07 06:04:00+00:00,229.0,7.32,230.0,9.13,12.17,47.59359,-54.27349
2023-04-07 06:14:00+00:00,229.0,7.83,234.0,9.32,12.17,47.59359,-54.27349
2023-04-07 06:24:00+00:00,228.0,8.2,229.0,9.32,12.17,47.59359,-54.27349
2023-04-07 06:34:00+00:00,224.0,8.97,220.0,10.97,12.17,47.59359,-54.27349
2023-04-07 06:44:00+00:00,216.0,9.0,221.0,10.24,12.17,47.59359,-54.27349
2023-04-07 06:54:00+00:00,220.0,9.78,216.0,11.65,12.17,47.59359,-54.27349
2023-04-07 07:04:00+00:00,229.0,8.6,225.0,10.27,12.17,47.59359,-54.27349
2023-04-07 07:14:00+00:00,218.0,9.08,216.0,11.17,12.09,47.59359,-54.27349
2023-04-07 07:24:00+00:00,224.0,7.41,217.0,9.85,12.09,47.59359,-54.27349
2023-04-07 07:34:00+00:00,227.0,7.81,219.0,9.32,12.09,47.59359,-54.27349
2023-04-07 07:44:00+00:00,221.0,8.72,217.0,10.87,12.09,47.59359,-54.27349
2023-04-07 07:54:00+00:00,228.0,7.56,236.0,9.53,12.09,47.59359,-54.27349
2023-04-07 08:04:00+00:00,223.0,7.71,218.0,9.08,12.09,47.59359,-54.27349
2023-04-07 08:14:00+00:00,218.0,8.27,221.0,9.56,12.09,47.59359,-54.27349
2023-04-07 08:24:00+00:00,229.0,7.62,228.0,8.9,12.09,47.59359,-54.27349
2023-04-07 08:34:00+00:00,228.0,8.13,232.0,9.49,12.09,47.59359,-54.27349
2023-04-07 08:44:00+00:00,227.0,7.14,229.0,8.07,12.09,47.59359,-54.27349
2023-04-07 08:54:00+00:00,228.0,8.25,215.0,9.88,12.09,47.59359,-54.27349
2023-04-07 09:04:00+00:00,223.0,8.93,224.0,10.13,12.09,47.59359,-54.27349
2023-04-07 09:14:00+00:00,213.0,8.74,212.0,9.73,12.09,47.59359,-54.27349
2023-04-07 09:24:00+00:00,211.0,11.06,213.0,12.35,12.09,47.59359,-54.27349
2023-04-07 09:34:00+00:00,215.0,9.6,215.0,11.24,12.09,47.59359,-54.27349
2023-04-07 09:44:00+00:00,210.0,10.69,207.0,11.84,12.09,47.59359,-54.27349
2023-04-07 09:54:00+00:00,210.0,10.92,208.0,12.55,12.09,47.59359,-54.27349
2023-04-07 10:04:00+00:00,211.0,9.57,213.0,11.02,12.09,47.59359,-54.27349
2023-04-07 10:14:00+00:00,205.0,8.74,211.0,10.1,12.01,47.59359,-54.27349
2023-04-07 10:24:00+00:00,238.0,7.05,240.0,8.84,12.01,47.59359,-54.27349
2023-04-07 10:34:00+00:00,250.0,6.18,249.0,6.93,12.01,47.59359,-54.27349
2023-04-07 10:44:00+00:00,226.0,5.79,225.0,6.47,12.01,47.59359,-54.27349
2023-04-07 10:54:00+00:00,216.0,6.91,216.0,7.48,12.01,47.59359,-54.27349
2023-04-07 11:04:00+00:00,228.0,5.9,228.0,6.74,12.01,47.59359,-54.27349
2023-04-07 11:14:00+00:00,238.0,6.32,245.0,7.55,12.09,47.59359,-54.27349
2023-04-07 11:24:00+00:00,217.0,4.19,227.0,5.81,12.09,47.59359,-54.27349
2023-04-07 11:34:00+00:00,204.0,3.71,226.0,5.54,12.09,47.59359,-54.27349
2023-04-07 11:44:00+00:00,223.0,4.47,223.0,5.48,12.09,47.59359,-54.27349
2023-04-07 11:54:00+00:00,235.0,5.05,243.0,7.32,12.09,47.59359,-54.27349
2023-04-07 12:04:00+00:00,229.0,5.25,231.0,6.36,12.09,47.59359,-54.27349
2023-04-07 12:14:00+00:00,226.0,5.3,224.0,6.26,12.33,47.59359,-54.27349
2023-04-07 12:24:00+00:00,196.0,3.38,232.0,4.96,12.33,47.59359,-54.27349
2023-04-07 12:34:00+00:00,196.0,3.36,229.0,5.02,12.33,47.59359,-54.27349
2023-04-07 12:44:00+00:00,199.0,3.03,219.0,4.88,12.33,47.59359,-54.27349
2023-04-07 12:54:00+00:00,184.0,3.11,230.0,5.05,12.33,47.59359,-54.27349
2023-04-07 13:04:00+00:00,197.0,3.37,228.0,4.86,12.33,47.59359,-54.27349
2023-04-07 13:14:00+00:00,165.0,3.59,164.0,4.23,13.44,47.59359,-54.27349
2023-04-07 13:24:00+00:00,167.0,3.74,168.0,4.12,13.44,47.59359,-54.27349
2023-04-07 13:34:00+00:00,166.0,4.03,164.0,4.34,13.44,47.59359,-54.27349
2023-04-07 13:44:00+00:00,166.0,5.09,166.0,5.62,13.44,47.59359,-54.27349
2023-04-07 13:54:00+00:00,164.0,5.33,163.0,5.78,13.44,47.59359,-54.27349
2023-04-07 14:04:00+00:00,164.0,5.93,163.0,6.2,13.44,47.59359,-54.27349
2023-04-07 14:14:00+00:00,166.0,5.71,167.0,6.76,13.6,47.59359,-54.27349
2023-04-07 14:24:00+00:00,172.0,6.23,174.0,6.84,13.6,47.59359,-54.27349
2023-04-07 14:34:00+00:00,169.0,5.91,167.0,6.5,13.6,47.59359,-54.27349
2023-04-07 14:44:00+00:00,181.0,6.79,202.0,7.86,13.6,47.59359,-54.27349
2023-04-07 14:54:00+00:00,187.0,7.34,206.0,8.33,13.6,47.59359,-54.27349
2023-04-07 15:04:00+00:00,176.0,6.04,207.0,7.04,13.6,47.59359,-54.27349
2023-04-07 15:14:00+00:00,181.0,6.26,207.0,7.76,13.6,47.59359,-54.27349
2023-04-07 15:24:00+00:00,199.0,7.65,205.0,9.56,13.6,47.59359,-54.27349
2023-04-07 15:34:00+00:00,209.0,7.67,211.0,9.01,13.6,47.59359,-54.27349
2023-04-07 15:44:00+00:00,217.0,7.26,216.0,8.08,13.6,47.59359,-54.27349
2023-04-07 15:54:00+00:00,203.0,6.39,212.0,7.87,13.6,47.59359,-54.27349
2023-04-07 16:04:00+00:00,204.0,6.78,214.0,8.24,13.6,47.59359,-54.27349
2023-04-07 16:14:00+00:00,207.0,8.77,210.0,9.48,13.68,47.59359,-54.27349
2023-04-07 16:24:00+00:00,192.0,5.17,216.0,6.74,13.68,47.59359,-54.27349
2023-04-07 16:34:00+00:00,254.0,7.76,254.0,9.42,13.68,47.59359,-54.27349
2023-04-07 16:44:00+00:00,236.0,6.38,237.0,8.53,13.68,47.59359,-54.27349
2023-04-07 16:54:00+00:00,242.0,6.91,244.0,7.7,13.68,47.59359,-54.27349
2023-04-07 17:04:00+00:00,241.0,6.68,245.0,7.72,13.68,47.59359,-54.27349
2023-04-07 17:14:00+00:00,234.0,6.99,238.0,8.27,14.4,47.59359,-54.27349
2023-04-07 17:24:00+00:00,232.0,6.93,232.0,7.82,14.4,47.59359,-54.27349
2023-04-07 17:34:00+00:00,224.0,6.51,230.0,7.72,14.4,47.59359,-54.27349
2023-04-07 17:44:00+00:00,225.0,7.84,219.0,9.01,14.4,47.59359,-54.27349
2023-04-07 17:54:00+00:00,230.0,7.24,231.0,8.92,14.4,47.59359,-54.27349
2023-04-07 18:04:00+00:00,233.0,7.13,233.0,8.3,14.4,47.59359,-54.27349
2023-04-07 18:14:00+00:00,239.0,7.38,242.0,8.18,14.4,47.59359,-54.27349
2023-04-07 18:24:00+00:00,253.0,7.08,253.0,9.2,14.4,47.59359,-54.27349
2023-04-07 18:34:00+00:00,268.0,10.19,268.0,11.7,14.4,47.59359,-54.27349
2023-04-07 18:44:00+00:00,280.0,9.15,276.0,13.68,14.4,47.59359,-54.27349
2023-04-07 18:54:00+00:00,286.0,10.86,282.0,14.67,14.4,47.59359,-54.27349
2023-04-07 19:04:00+00:00,289.0,9.96,288.0,11.96,14.4,47.59359,-54.27349
2023-04-07 19:14:00+00:00,290.0,9.72,290.0,10.95,13.92,47.59359,-54.27349
2023-04-07 19:24:00+00:00,284.0,10.93,281.0,12.35,13.92,47.59359,-54.27349
2023-04-07 19:34:00+00:00,280.0,11.08,283.0,12.56,13.92,47.59359,-54.27349
2023-04-07 19:44:00+00:00,276.0,10.44,277.0,11.92,13.92,47.59359,-54.27349
2023-04-07 19:54:00+00:00,276.0,8.96,282.0,10.68,13.92,47.59359,-54.27349
2023-04-07 20:04:00+00:00,268.0,10.14,271.0,11.71,13.92,47.59359,-54.27349
2023-04-07 20:14:00+00:00,264.0,9.36,265.0,11.32,13.68,47.59359,-54.27349
2023-04-07 20:24:00+00:00,240.0,6.99,244.0,7.64,13.68,47.59359,-54.27349
2023-04-07 20:34:00+00:00,253.0,8.53,259.0,9.35,13.68,47.59359,-54.27349
2023-04-07 20:44:00+00:00,256.0,9.49,256.0,10.68,13.68,47.59359,-54.27349
2023-04-07 20:54:00+00:00,258.0,9.5,264.0,10.81,13.68,47.59359,-54.27349
2023-04-07 21:04:00+00:00,269.0,9.48,270.0,11.53,13.68,47.59359,-54.27349
2023-04-07 21:14:00+00:00,268.0,9.71,267.0,11.67,13.44,47.59359,-54.27349
2023-04-07 21:24:00+00:00,274.0,10.84,272.0,12.5,13.44,47.59359,-54.27349
2023-04-07 21:34:00+00:00,275.0,10.94,280.0,12.92,13.44,47.59359,-54.27349
2023-04-07 21:44:00+00:00,278.0,12.11,279.0,15.04,13.44,47.59359,-54.27349
2023-04-07 21:54:00+00:00,275.0,13.25,275.0,17.56,13.44,47.59359,-54.27349
2023-04-07 22:04:00+00:00,273.0,11.58,273.0,13.93,13.44,47.59359,-54.27349
2023-04-07 22:14:00+00:00,283.0,10.53,283.0,12.33,12.89,47.59359,-54.27349
2023-04-07 22:24:00+00:00,280.0,11.13,284.0,12.72,12.89,47.59359,-54.27349
2023-04-07 22:34:00+00:00,276.0,11.36,277.0,15.92,12.89,47.59359,-54.27349
2023-04-07 22:44:00+00:00,278.0,10.48,280.0,12.48,12.89,47.59359,-54.27349
2023-04-07 22:54:00+00:00,286.0,10.77,285.0,12.64,12.89,47.59359,-54.27349
2023-04-07 23:04:00+00:00,283.0,9.44,289.0,10.72,12.89,47.59359,-54.27349
2023-04-07 23:14:01+00:00,284.0,11.52,287.0,13.77,12.41,47.59359,-54.27349
2023-04-07 23:24:01+00:00,282.0,11.66,283.0,14.99,12.41,47.59359,-54.27349
2023-04-07 23:34:01+00:00,288.0,9.41,286.0,11.23,12.41,47.59359,-54.27349
2023-04-07 23:44:01+00:00,296.0,10.33,296.0,13.12,12.41,47.59359,-54.27349
2023-04-07 23:54:01+00:00,296.0,8.35,292.0,9.35,12.41,47.59359,-54.27349
